Time,TemperatureF,DewpointF,PressureIn,WindDirection,WindDirectionDegrees,WindSpeedMPH,WindSpeedGustMPH,Humidity,HourlyPrecipIn,Conditions,Clouds,dailyrainin,SolarRadiationWatts/m^2,SoftwareType,DateUTC
2013-06-27 00:14:00,54.1,47.0,31.60,North,360,3.0,6.0,78,0.00,,,0.00,0,weatherlink.com 1.10,2013-06-27 06:14:00,
2013-06-27 00:30:00,53.4,49.0,31.61,North,355,2.0,3.0,84,0.00,,,0.00,0,weatherlink.com 1.10,2013-06-27 06:30:00,
2013-06-27 00:45:00,53.3,47.0,31.60,North,355,1.0,3.0,80,0.00,,,0.00,0,weatherlink.com 1.10,2013-06-27 06:45:00,
2013-06-27 01:00:00,54.6,49.0,31.60,North,355,0.0,3.0,80,0.00,,,0.00,0,weatherlink.com 1.10,2013-06-27 07:00:00,
2013-06-27 01:15:00,56.0,47.0,31.61,SE,128,3.0,5.0,73,0.00,,,0.00,0,weatherlink.com 1.10,2013-06-27 07:15:00,
2013-06-27 01:30:00,56.7,48.0,31.61,South,183,6.0,7.0,72,0.00,,,0.00,0,weatherlink.com 1.10,2013-06-27 07:30:00,
2013-06-27 01:45:00,55.4,48.0,31.62,South,178,4.0,7.0,76,0.00,,,0.00,0,weatherlink.com 1.10,2013-06-27 07:45:00,
2013-06-27 02:00:00,54.7,48.0,31.62,South,182,5.0,6.0,79,0.00,,,0.00,0,weatherlink.com 1.10,2013-06-27 08:00:00,
2013-06-27 02:15:00,54.4,48.0,31.62,South,181,4.0,9.0,80,0.00,,,0.00,0,weatherlink.com 1.10,2013-06-27 08:15:00,
2013-06-27 02:30:00,55.0,48.0,31.62,SSE,157,3.0,7.0,78,0.00,,,0.00,0,weatherlink.com 1.10,2013-06-27 08:30:00,
2013-06-27 02:45:00,54.7,49.0,31.62,SSE,157,0.0,4.0,81,0.00,,,0.00,0,weatherlink.com 1.10,2013-06-27 08:45:00,
2013-06-27 03:00:00,54.0,49.0,31.62,SSE,157,1.0,1.0,82,0.00,,,0.00,0,weatherlink.com 1.10,2013-06-27 09:00:00,
2013-06-27 03:15:00,55.2,48.0,31.63,SSE,157,9.0,12.0,78,0.00,,,0.00,0,weatherlink.com 1.10,2013-06-27 09:15:00,
2013-06-27 03:30:00,55.6,49.0,31.62,SSE,157,5.0,12.0,77,0.00,,,0.00,0,weatherlink.com 1.10,2013-06-27 09:30:00,
2013-06-27 03:45:00,55.8,48.0,31.63,SSE,165,4.0,10.0,75,0.00,,,0.00,0,weatherlink.com 1.10,2013-06-27 09:45:00,
2013-06-27 04:00:00,55.3,48.0,31.62,SSE,165,5.0,10.0,75,0.00,,,0.00,0,weatherlink.com 1.10,2013-06-27 10:00:00,
2013-06-27 04:15:00,55.1,48.0,31.62,South,172,4.0,9.0,76,0.00,,,0.00,0,weatherlink.com 1.10,2013-06-27 10:15:00,
2013-06-27 04:30:00,55.5,48.0,31.62,SSE,156,7.0,14.0,75,0.00,,,0.00,0,weatherlink.com 1.10,2013-06-27 10:30:00,
2013-06-27 04:45:00,54.0,48.0,31.63,South,178,7.0,13.0,79,0.00,,,0.00,0,weatherlink.com 1.10,2013-06-27 10:45:00,
2013-06-27 05:00:00,53.7,48.0,31.63,SE,146,5.0,9.0,80,0.00,,,0.00,0,weatherlink.com 1.10,2013-06-27 11:00:00,
2013-06-27 05:15:00,53.4,47.0,31.64,South,182,0.0,4.0,80,0.00,,,0.00,0,weatherlink.com 1.10,2013-06-27 11:15:00,
2013-06-27 05:30:00,51.9,47.0,31.65,South,182,0.0,1.0,84,0.00,,,0.00,0,weatherlink.com 1.10,2013-06-27 11:30:00,
2013-06-27 05:45:00,52.0,48.0,31.65,South,182,2.0,2.0,85,0.00,,,0.00,0,weatherlink.com 1.10,2013-06-27 11:45:00,
2013-06-27 06:00:00,53.7,48.0,31.64,SSE,165,0.0,3.0,82,0.00,,,0.00,9,weatherlink.com 1.10,2013-06-27 12:00:00,
2013-06-27 06:15:00,52.9,48.0,31.64,SW,220,0.0,3.0,82,0.00,,,0.00,12,weatherlink.com 1.10,2013-06-27 12:15:00,
2013-06-27 06:30:00,52.0,48.0,31.65,SW,220,0.0,1.0,85,0.00,,,0.00,16,weatherlink.com 1.10,2013-06-27 12:30:00,
2013-06-27 06:45:00,51.3,47.0,31.65,WSW,255,3.0,3.0,86,0.00,,,0.00,18,weatherlink.com 1.10,2013-06-27 12:45:00,
2013-06-27 07:00:00,51.2,48.0,31.66,ESE,114,0.0,2.0,87,0.00,,,0.00,77,weatherlink.com 1.10,2013-06-27 13:00:00,
2013-06-27 07:15:00,53.0,49.0,31.66,West,273,0.0,4.0,86,0.00,,,0.00,102,weatherlink.com 1.10,2013-06-27 13:15:00,
2013-06-27 07:30:00,54.4,50.0,31.67,West,273,0.0,0.0,84,0.00,,,0.00,144,weatherlink.com 1.10,2013-06-27 13:30:00,
2013-06-27 07:45:00,55.9,50.0,31.67,West,273,1.0,3.0,81,0.00,,,0.00,193,weatherlink.com 1.10,2013-06-27 13:45:00,
2013-06-27 08:00:00,55.8,50.0,31.67,West,273,0.0,4.0,81,0.00,,,0.00,236,weatherlink.com 1.10,2013-06-27 14:00:00,
2013-06-27 08:15:00,56.1,51.0,31.67,SSW,200,4.0,6.0,82,0.00,,,0.00,274,weatherlink.com 1.10,2013-06-27 14:15:00,
2013-06-27 08:31:00,56.5,51.0,31.67,SW,223,5.0,7.0,82,0.00,,,0.00,315,weatherlink.com 1.10,2013-06-27 14:31:00,
2013-06-27 08:46:00,56.9,52.0,31.67,SSW,213,1.0,7.0,82,0.00,,,0.00,355,weatherlink.com 1.10,2013-06-27 14:46:00,
2013-06-27 09:01:00,57.2,52.0,31.67,SW,221,2.0,7.0,83,0.00,,,0.00,394,weatherlink.com 1.10,2013-06-27 15:01:00,
2013-06-27 09:16:00,58.0,52.0,31.67,SSW,204,0.0,5.0,81,0.00,,,0.00,438,weatherlink.com 1.10,2013-06-27 15:16:00,
2013-06-27 09:31:00,59.2,53.0,31.67,SSW,213,3.0,4.0,79,0.00,,,0.00,480,weatherlink.com 1.10,2013-06-27 15:31:00,
2013-06-27 09:46:00,60.9,54.0,31.67,SW,221,6.0,9.0,77,0.00,,,0.00,517,weatherlink.com 1.10,2013-06-27 15:46:00,
2013-06-27 10:01:00,61.8,53.0,31.66,SSW,209,7.0,12.0,74,0.00,,,0.00,555,weatherlink.com 1.10,2013-06-27 16:01:00,
2013-06-27 10:16:00,62.0,53.0,31.66,SSW,211,7.0,12.0,72,0.00,,,0.00,594,weatherlink.com 1.10,2013-06-27 16:16:00,
2013-06-27 10:31:00,62.5,53.0,31.66,SW,219,6.0,11.0,72,0.00,,,0.00,631,weatherlink.com 1.10,2013-06-27 16:31:00,
2013-06-27 10:46:00,63.3,53.0,31.65,SSW,207,5.0,9.0,70,0.00,,,0.00,664,weatherlink.com 1.10,2013-06-27 16:46:00,
2013-06-27 11:01:00,64.3,54.0,31.65,SSW,209,1.0,6.0,70,0.00,,,0.00,696,weatherlink.com 1.10,2013-06-27 17:01:00,
2013-06-27 11:16:00,65.1,54.0,31.64,West,279,0.0,8.0,67,0.00,,,0.00,728,weatherlink.com 1.10,2013-06-27 17:16:00,
2013-06-27 11:31:00,66.2,54.0,31.64,SW,236,1.0,8.0,65,0.00,,,0.00,758,weatherlink.com 1.10,2013-06-27 17:31:00,
2013-06-27 11:46:00,67.1,55.0,31.64,WSW,240,1.0,7.0,66,0.00,,,0.00,784,weatherlink.com 1.10,2013-06-27 17:46:00,
2013-06-27 12:02:00,68.0,54.0,31.63,SW,236,7.0,9.0,61,0.00,,,0.00,810,weatherlink.com 1.10,2013-06-27 18:02:00,
2013-06-27 12:17:00,68.5,54.0,31.63,WNW,296,1.0,9.0,60,0.00,,,0.00,831,weatherlink.com 1.10,2013-06-27 18:17:00,
2013-06-27 12:32:00,68.5,53.0,31.62,WSW,257,0.0,7.0,58,0.00,,,0.00,847,weatherlink.com 1.10,2013-06-27 18:32:00,
2013-06-27 12:47:00,69.6,54.0,31.62,West,281,3.0,6.0,59,0.00,,,0.00,868,weatherlink.com 1.10,2013-06-27 18:47:00,
2013-06-27 13:02:00,70.5,55.0,31.61,WNW,285,4.0,7.0,58,0.00,,,0.00,886,weatherlink.com 1.10,2013-06-27 19:02:00,
2013-06-27 13:17:00,71.3,54.0,31.61,West,281,0.0,7.0,55,0.00,,,0.00,907,weatherlink.com 1.10,2013-06-27 19:17:00,
2013-06-27 13:32:00,72.6,54.0,31.60,South,190,5.0,9.0,53,0.00,,,0.00,902,weatherlink.com 1.10,2013-06-27 19:32:00,
2013-06-27 13:47:00,73.7,53.0,31.59,South,184,7.0,10.0,49,0.00,,,0.00,916,weatherlink.com 1.10,2013-06-27 19:47:00,
2013-06-27 14:02:00,73.5,53.0,31.59,West,277,7.0,9.0,49,0.00,,,0.00,935,weatherlink.com 1.10,2013-06-27 20:02:00,
2013-06-27 14:17:00,74.3,54.0,31.58,SW,236,3.0,8.0,49,0.00,,,0.00,918,weatherlink.com 1.10,2013-06-27 20:17:00,
2013-06-27 14:47:00,75.1,53.0,31.58,SE,144,1.0,9.0,47,0.00,,,0.00,1027,weatherlink.com 1.10,2013-06-27 20:47:00,
2013-06-27 15:02:00,76.4,53.0,31.57,SSW,209,9.0,9.0,45,0.00,,,0.00,939,weatherlink.com 1.10,2013-06-27 21:02:00,
2013-06-27 15:17:00,76.5,51.0,31.57,SW,215,7.0,11.0,41,0.00,,,0.00,912,weatherlink.com 1.10,2013-06-27 21:17:00,
2013-06-27 15:32:00,76.9,53.0,31.57,NNW,333,1.0,8.0,44,0.00,,,0.00,905,weatherlink.com 1.10,2013-06-27 21:32:00,
2013-06-27 16:02:00,77.4,54.0,31.56,WSW,242,2.0,7.0,44,0.00,,,0.00,819,weatherlink.com 1.10,2013-06-27 22:02:00,
2013-06-27 16:17:00,77.9,52.0,31.56,NNE,24,3.0,8.0,40,0.00,,,0.00,807,weatherlink.com 1.10,2013-06-27 22:17:00,
2013-06-27 16:32:00,78.6,54.0,31.56,WNW,302,6.0,7.0,42,0.00,,,0.00,793,weatherlink.com 1.10,2013-06-27 22:32:00,
2013-06-27 16:47:00,78.9,52.0,31.55,NNW,330,7.0,11.0,39,0.00,,,0.00,765,weatherlink.com 1.10,2013-06-27 22:47:00,
2013-06-27 17:02:00,79.2,50.0,31.55,North,360,1.0,5.0,36,0.00,,,0.00,724,weatherlink.com 1.10,2013-06-27 23:02:00,
2013-06-27 17:33:00,79.3,49.0,31.54,NW,308,3.0,13.0,34,0.00,,,0.00,668,weatherlink.com 1.10,2013-06-27 23:33:00,
2013-06-27 17:48:00,79.6,48.0,31.54,North,355,6.0,8.0,33,0.00,,,0.00,622,weatherlink.com 1.10,2013-06-27 23:48:00,
2013-06-27 18:03:00,79.3,50.0,31.54,NNW,329,7.0,9.0,36,0.00,,,0.00,594,weatherlink.com 1.10,2013-06-28 00:03:00,
2013-06-27 18:18:00,80.0,50.0,31.54,North,5,5.0,7.0,35,0.00,,,0.00,554,weatherlink.com 1.10,2013-06-28 00:18:00,
2013-06-27 18:33:00,79.3,48.0,31.54,NNW,340,3.0,11.0,33,0.00,,,0.00,308,weatherlink.com 1.10,2013-06-28 00:33:00,
2013-06-27 18:48:00,80.0,48.0,31.53,NW,324,2.0,8.0,33,0.00,,,0.00,471,weatherlink.com 1.10,2013-06-28 00:48:00,
2013-06-27 19:03:00,79.9,51.0,31.53,WNW,295,1.0,6.0,36,0.00,,,0.00,459,weatherlink.com 1.10,2013-06-28 01:03:00,
2013-06-27 19:18:00,80.2,47.0,31.52,North,360,10.0,12.0,31,0.00,,,0.00,387,weatherlink.com 1.10,2013-06-28 01:18:00,
2013-06-27 19:33:00,77.8,50.0,31.52,NNW,348,2.0,7.0,38,0.00,,,0.00,139,weatherlink.com 1.10,2013-06-28 01:33:00,
2013-06-27 20:18:00,76.3,49.0,31.52,NNE,12,4.0,9.0,38,0.00,,,0.00,84,weatherlink.com 1.10,2013-06-28 02:18:00,
2013-06-27 20:48:00,75.4,47.0,31.53,NNE,33,4.0,10.0,37,0.00,,,0.00,60,weatherlink.com 1.10,2013-06-28 02:48:00,
2013-06-27 21:03:00,74.7,47.0,31.53,NNE,28,5.0,10.0,37,0.00,,,0.00,46,weatherlink.com 1.10,2013-06-28 03:03:00,
2013-06-27 21:18:00,74.2,47.0,31.54,NNE,21,3.0,9.0,38,0.00,,,0.00,11,weatherlink.com 1.10,2013-06-28 03:18:00,
2013-06-27 21:33:00,73.0,47.0,31.55,NNE,17,5.0,9.0,39,0.00,,,0.00,0,weatherlink.com 1.10,2013-06-28 03:33:00,
2013-06-27 21:48:00,71.7,45.0,31.55,North,355,7.0,9.0,39,0.00,,,0.00,0,weatherlink.com 1.10,2013-06-28 03:48:00,
2013-06-27 22:03:00,71.1,46.0,31.56,North,355,2.0,7.0,41,0.00,,,0.00,0,weatherlink.com 1.10,2013-06-28 04:03:00,
2013-06-27 22:18:00,69.8,46.0,31.56,North,355,2.0,5.0,43,0.00,,,0.00,0,weatherlink.com 1.10,2013-06-28 04:18:00,
2013-06-27 22:33:00,69.4,46.0,31.57,NNE,24,1.0,4.0,44,0.00,,,0.00,0,weatherlink.com 1.10,2013-06-28 04:33:00,
2013-06-27 22:48:00,69.9,46.0,31.57,NE,35,2.0,6.0,43,0.00,,,0.00,0,weatherlink.com 1.10,2013-06-28 04:48:00,
2013-06-27 23:03:00,70.1,46.0,31.57,NE,46,0.0,6.0,43,0.00,,,0.00,0,weatherlink.com 1.10,2013-06-28 05:03:00,
2013-06-27 23:18:00,70.0,46.0,31.57,NNE,25,0.0,4.0,42,0.00,,,0.00,0,weatherlink.com 1.10,2013-06-28 05:18:00,
2013-06-27 23:33:00,70.7,46.0,31.57,NE,50,2.0,6.0,41,0.00,,,0.00,0,weatherlink.com 1.10,2013-06-28 05:33:00,
2013-06-27 23:48:00,69.9,46.0,31.57,NE,36,1.0,5.0,42,0.00,,,0.00,0,weatherlink.com 1.10,2013-06-28 05:48:00,